Content
SEND FEEDBACK

Daily
Averages
Monthly
Summary
Mexico

ACUITLAPILCO, MÉXICO


Home > North America > Mexico > México
Elevation: 9285 feet     Latitude: 18 54N     Longitude: 099 47W

WEATHER
 
SELECT A DAY
Number of Records: 168,328;   Date Range: 1/1/95 - 9/30/14
 
SHARE

PRINT THIS DATA

[ ← Previous Day ]
WEATHER ALMANAC - FEBRUARY 5, 2013
[ Next Day → ]
[ °C ]   °F
Weather ElementAverageHighLow
Temperature52 °F73.4 °F (2:45 pm)33.8 °F (7:45 am)
Dewpoint33.9 °F41 °F (9:45 am)15.8 °F (3:45 pm)
Humidity59.1 %93 % (3:45 am)13 % (3:45 pm)
Barometer30.19 in30.43 in (9:45 am)29.78 in (2:45 pm)
Wind Speed3.3 mph11.5 mph (5:43 pm)
Weather ElementAverage
Visibility5 mi
Wind DirectionESE (100.4 °)

Weather ElementTotal
Precipitation---
Heating Degree Days11.4 (Base 65)
Growing Degree Days3.6 (Base 50)
Averaged from 23 records on February 5, 2013
WEATHER CONDITIONS BREAKOUT
WIND DIRECTION BREAKOUT
WEATHER BY HOUR - FEBRUARY 5, 2013
[ °C ]   °F
Local TimeTemperatureDewpointHumidityBarometerVisibilityWind DirectionWind SpeedGust SpeedPrecipitationEventsConditions
1:45 AM39.2 °F35.6 °F87 %30.36 in4.0 miCalmScattered Clouds
2:45 AM39.2 °F35.6 °F87 %29.86 in3.0 miCalmScattered Clouds
3:45 AM37.4 °F35.6 °F93 %30.33 in3.0 miCalmScattered Clouds
4:45 AM37.4 °F35.6 °F93 %30.34 in3.0 miCalmScattered Clouds
5:45 AM37.4 °F35.6 °F93 %29.94 in2.0 miCalmScattered Clouds
6:45 AM35.6 °F32.0 °F87 %30.37 in1.0 miCalmPartly Cloudy
7:45 AM33.8 °F32.0 °F93 %30.39 in2.0 miCalmClear
8:45 AM41.0 °F39.2 °F93 %30.03 in2.0 miCalmClear
9:45 AM51.8 °F41.0 °F67 %30.43 in2.0 miSouth (170°)3.5 mphClear
10:45 AM60.8 °F39.2 °F45 %30.42 in6.0 miNNW (330°)3.5 mphClear
11:45 AM62.6 °F37.4 °F39 %29.91 in7.0 miWNW (300°)3.5 mphClear
12:45 PM66.2 °F33.8 °F30 %30.36 in7.0 miEast (80°)4.6 mphClear
1:45 PM69.8 °F30.2 °F23 %30.32 in7.0 miNE (50°)4.6 mphPartly Cloudy
2:45 PM73.4 °F24.8 °F16 %29.78 in7.0 miNW (310°)6.9 mphScattered Clouds
3:45 PM68.0 °F15.8 °F13 %30.26 in7.0 miWest (260°)4.6 mphScattered Clouds
4:42 PM69.8 °F21.2 °F16 %30.26 in7.0 miWest (260°)6.9 mphScattered Clouds
5:43 PM66.2 °F37.4 °F35 %29.85 in7.0 miSouth (180°)11.5 mphMostly Cloudy
6:43 PM60.8 °F37.4 °F42 %30.30 in6.0 miEast (100°)5.8 mphScattered Clouds
7:43 PM55.4 °F35.6 °F47 %30.32 in7.0 miNNE (30°)4.6 mphScattered Clouds
8:43 PM51.8 °F37.4 °F58 %30.00 in6.0 miENE (70°)5.8 mphPartly Cloudy
9:45 PM46.4 °F35.6 °F66 %30.36 in6.0 miEast (100°)4.6 mphPartly Cloudy
10:45 PM46.4 °F37.4 °F71 %30.37 in6.0 miCalmPartly Cloudy
11:45 PM44.6 °F33.8 °F66 %29.91 in6.0 miENE (70°)4.6 mphPartly Cloudy
Hourly data recorded from MMTO, located miles away from Acuitlapilco, México







STORIES FROM OUR PARTNERS